FW7233 Weather Reports


Display with metric or nautical units.
time (UTC)temp
F
wind
direction
speed
MPH
gust
MPH
rain 1hr
in
rain 24hr
in
rain mn
in
humidity
%
barometer
mb
20260510022707 35 134 0.0 0.0 0.00 0.00 0.00 99 1019.3
20260510021704 35 134 0.0 0.0 0.00 0.00 0.00 99 1019.4
20260510020705 35 134 0.0 0.0 0.00 0.00 0.00 99 1019.5
20260510014705 35 134 0.0 0.0 0.00 0.00 0.00 99 1019.6
20260510013707 36 134 0.0 0.0 0.00 0.00 0.00 99 1019.3
20260510011707 36 135 0.0 0.0 0.00 0.00 0.00 99 1019.4
20260510010709 36 135 0.0 0.0 0.00 0.00 0.00 99 1019.5
20260510005707 37 134 0.0 0.0 0.00 0.00 0.00 99 1019.4
20260510003704 36 135 0.0 0.0 0.00 0.00 0.00 99 1019.5
20260510002705 37 135 0.0 1.0 0.00 0.00 0.00 99 1019.6
20260510001704 37 135 0.0 0.0 0.00 0.00 0.00 99 1019.8
20260509235706 38 135 0.0 0.0 0.00 0.00 0.00 99 1020.0
20260509234706 38 135 0.0 0.0 0.00 0.00 0.00 99 1019.8
20260509233705 37 134 0.0 0.0 0.00 0.00 0.00 99 1019.9
20260509232706 38 134 0.0 0.0 0.00 0.00 0.00 99 1019.8
20260509231705 38 135 0.0 0.0 0.00 0.00 0.00 99 1020.0
20260509230705 38 135 0.0 0.0 0.00 0.00 0.00 99 1020.1
20260509225707 39 135 0.0 0.0 0.00 0.00 0.00 99 1020.2
20260509224707 39 135 0.0 0.0 0.00 0.00 0.00 99 1020.4
20260509223708 39 135 0.0 0.0 0.00 0.00 0.00 99 1020.2
20260509222705 39 140 0.0 0.0 0.00 0.00 0.00 99 1020.2
20260509215705 40 141 0.0 1.0 0.00 0.00 0.00 99 1020.3
20260509213706 39 141 0.0 0.0 0.00 0.00 0.00 99 1020.2
20260509212705 40 141 0.0 1.0 0.00 0.00 0.00 99 1020.3
20260509211706 40 142 0.0 1.0 0.00 0.00 0.00 99 1020.4
20260509210704 41 142 0.0 0.0 0.00 0.00 0.00 99 1020.5
20260509205706 41 142 0.0 0.0 0.00 0.00 0.00 99 1020.6
20260509204705 41 139 0.0 0.0 0.00 0.00 0.00 99 1020.4
20260509202708 41 144 0.0 1.0 0.00 0.00 0.00 98 1020.5
20260509201658 42 146 0.0 0.0 0.00 0.00 0.00 98 1020.4
20260509200653 42 145 0.0 0.0 0.00 0.00 0.00 98 1020.3
20260509195647 42 146 0.0 0.0 0.00 0.00 0.00 97 1020.1
20260509194645 43 151 0.0 0.0 0.00 0.00 0.00 97 1020.2
20260509193644 44 140 0.0 0.0 0.00 0.00 0.00 97 1020.5
20260509192645 44 140 0.0 0.0 0.00 0.00 0.00 96 1020.4
20260509190645 45 145 0.0 0.0 0.00 0.00 0.00 95 1020.1
20260509185647 46 148 0.0 0.0 0.00 0.00 0.00 95 1020.1
20260509184644 46 164 0.0 0.0 0.00 0.00 0.00 94 1019.9
20260509183645 47 164 0.0 0.0 0.00 0.00 0.00 93 1020.1
20260509182647 47 164 0.0 0.0 0.00 0.00 0.00 92 1020.0
20260509181647 49 164 0.0 0.0 0.00 0.00 0.00 90 1019.9
20260509175645 50 164 0.0 0.0 0.00 0.00 0.00 87 1019.9
20260509173644 53 164 0.0 0.0 0.00 0.00 0.00 85 1019.9
20260509172648 53 164 0.0 0.0 0.00 0.00 0.00 80 1019.9
20260509171647 55 165 0.0 1.0 0.00 0.00 0.00 75 1019.8
20260509170645 57 164 0.0 0.0 0.00 0.00 0.00 70 1019.9
20260509165645 60 165 0.0 0.0 0.00 0.00 0.00 59 1019.7
20260509164645 59 165 0.0 2.0 0.00 0.00 0.00 61 1019.8
20260509162644 64 137 0.0 1.0 0.00 0.00 0.00 54 1020.1
20260509161646 64 148 0.0 1.0 0.00 0.00 0.00 53 1019.9
20260509153648 62 115 1.0 3.0 0.00 0.00 0.00 56 1020.2
20260509152647 61 37 2.0 6.0 0.00 0.00 0.00 57 1020.1
20260509151644 61 112 1.0 4.0 0.00 0.00 0.00 55 1020.0
20260509150647 60 149 0.0 4.0 0.00 0.00 0.00 64 1020.3
20260509144645 63 142 0.0 4.0 0.00 0.00 0.00 56 1020.4
20260509143644 63 226 0.0 2.0 0.00 0.00 0.00 57 1020.2
20260509140646 62 162 1.0 6.0 0.00 0.00 0.00 58 1020.6
20260509134647 58 218 1.0 2.0 0.00 0.00 0.00 60 1020.5
20260509132647 60 223 2.0 4.0 0.00 0.00 0.00 59 1020.6
20260509131645 61 16 2.0 4.0 0.00 0.00 0.00 56 1020.6
20260509130645 59 143 0.0 2.0 0.00 0.00 0.00 67 1020.5
20260509125646 60 145 1.0 3.0 0.00 0.00 0.00 61 1020.7
20260509124646 62 58 1.0 3.0 0.00 0.00 0.00 58 1020.8
20260509123644 60 46 1.0 3.0 0.00 0.00 0.00 64 1020.9
20260509122648 58 112 0.0 4.0 0.00 0.00 0.00 66 1021.1
20260509121647 58 152 1.0 4.0 0.00 0.00 0.00 67 1021.1
20260509113645 55 147 0.0 2.0 0.00 0.00 0.00 75 1021.4
20260509112645 56 30 0.0 1.0 0.00 0.00 0.00 73 1021.2
20260509111637 58 156 0.0 2.0 0.00 0.00 0.00 71 1021.5
20260509110636 58 147 0.0 2.0 0.00 0.00 0.00 73 1021.5
20260509104635 53 237 1.0 2.0 0.00 0.00 0.00 80 1021.4
20260509103636 53 133 0.0 2.0 0.00 0.00 0.00 83 1021.6
20260509102636 52 108 0.0 2.0 0.00 0.00 0.00 82 1021.7
20260509101635 53 87 0.0 2.0 0.00 0.00 0.00 82 1021.6
20260509095637 51 116 0.0 2.0 0.00 0.00 0.00 86 1021.7
20260509094635 51 140 1.0 2.0 0.00 0.00 0.00 87 1021.7
20260509093636 52 84 1.0 3.0 0.00 0.00 0.00 87 1021.6
20260509091637 53 51 1.0 2.0 0.00 0.00 0.00 86 1021.4
20260509090635 53 164 2.0 2.0 0.00 0.00 0.00 87 1021.5
20260509085637 51 114 0.0 2.0 0.00 0.00 0.00 92 1021.4
20260509082635 50 24 1.0 3.0 0.00 0.00 0.00 92 1021.4
20260509081635 50 79 0.0 3.0 0.00 0.00 0.00 92 1021.3
20260509080636 50 136 0.0 2.0 0.00 0.00 0.00 91 1021.2
20260509074637 52 169 0.0 2.0 0.00 0.00 0.00 92 1020.9
20260509073636 51 138 0.0 2.0 0.00 0.00 0.00 94 1021.3
20260509072635 49 1 1.0 4.0 0.00 0.00 0.00 95 1021.0
20260509070635 49 144 0.0 3.0 0.00 0.00 0.00 94 1020.9
20260509065641 49 31 0.0 2.0 0.00 0.00 0.00 94 1020.9
20260509064635 49 137 0.0 1.0 0.00 0.00 0.00 94 1020.8
20260509063638 48 142 0.0 3.0 0.00 0.00 0.00 94 1020.6
20260509061636 49 145 0.0 1.0 0.00 0.00 0.00 93 1020.8
20260509060635 49 85 0.0 1.0 0.00 0.00 0.00 93 1020.5
20260509055636 49 139 0.0 1.0 0.00 0.00 0.00 94 1020.5
20260509054636 49 137 0.0 1.0 0.00 0.00 0.00 94 1020.4
20260509052635 48 29 0.0 1.0 0.00 0.00 0.00 95 1020.5
20260509045635 47 130 0.0 1.0 0.00 0.00 0.00 99 1020.7
20260509043635 47 139 0.0 0.0 0.00 0.00 0.00 99 1020.3
20260509042635 46 133 0.0 0.0 0.00 0.00 0.00 99 1020.6
20260509041635 46 136 0.0 0.0 0.00 0.00 0.00 99 1020.3
20260509040635 46 148 0.0 0.0 0.00 0.00 0.00 99 1020.2
20260509035635 46 129 0.0 0.0 0.00 0.00 0.00 99 1020.1
20260509033636 46 142 0.0 1.0 0.00 0.00 0.00 99 1020.1
20260509031637 46 134 0.0 1.0 0.00 0.00 0.00 99 1020.2
20260509030637 46 145 0.0 0.0 0.00 0.00 0.00 99 1020.2
20260509025637 46 134 0.0 0.0 0.00 0.00 0.00 99 1020.2
20260509024635 46 139 0.0 0.0 0.00 0.00 0.00 99 1020.2
20260509023638 46 138 0.0 0.0 0.00 0.00 0.00 99 1020.2